NM5I Weather Reports


time (UTC)temp
C
wind
direction
speed
KPH
gust
KPH
rain 1hr
cm
rain 24hr
cm
rain mn
cm
humidity
%
barometer
mb
20260502123155 10 239 0.0 0.0 0.00 0.38 0.00 97 1019.4
20260502122132 10 239 0.0 0.0 0.00 0.38 0.00 97 1019.4
20260502121153 10 239 0.0 0.0 0.00 0.38 0.00 97 1019.2
20260502120159 10 239 0.0 0.0 0.00 0.38 0.00 97 1019.0
20260502115221 10 239 0.0 0.0 0.00 0.46 0.00 96 1018.8
20260502114206 10 239 0.0 0.0 0.00 0.46 0.00 96 1018.7
20260502113136 10 239 0.0 0.0 0.00 0.46 0.00 96 1018.5
20260502112214 10 35 0.0 0.0 0.00 0.46 0.00 96 1018.4
20260502111130 10 35 0.0 1.6 0.00 0.46 0.00 96 1018.3
20260502110847 10 35 0.0 1.6 0.00 0.46 0.00 96 1018.2
20260502110150 10 35 0.0 0.0 0.00 0.46 0.00 96 1018.2
20260502105211 10 35 0.0 0.0 0.00 0.48 0.00 96 1018.2
20260502103154 10 35 0.0 0.0 0.00 0.48 0.00 96 1018.0
20260502102132 11 35 0.0 0.0 0.00 0.48 0.00 96 1018.0
20260502101201 11 35 0.0 0.0 0.00 0.48 0.00 96 1017.9
20260502100209 11 35 0.0 0.0 0.00 0.48 0.00 96 1017.8
20260502091137 11 35 0.0 0.0 0.00 0.48 0.00 95 1017.5
20260502090233 11 35 0.0 0.0 0.00 0.48 0.00 95 1017.4
20260502070140 12 35 0.0 0.0 0.00 0.48 0.00 95 1017.7
20260502065159 12 35 0.0 0.0 0.00 0.48 0.00 95 1017.7
20260502064146 12 35 0.0 0.0 0.00 0.48 0.00 95 1017.6
20260502063134 12 35 0.0 1.6 0.00 0.48 0.00 95 1017.6
20260502062142 12 35 0.0 0.0 0.00 0.48 0.00 95 1017.6
20260502061129 12 35 0.0 0.0 0.00 0.48 0.00 95 1017.6
20260502060127 12 35 0.0 0.0 0.00 0.48 0.00 95 1017.5
20260502055135 12 35 0.0 0.0 0.00 0.48 0.00 95 1017.6
20260502054124 12 35 0.0 0.0 0.00 0.48 0.00 96 1017.5
20260502053132 12 35 0.0 0.0 0.00 0.48 0.00 96 1017.4
20260502052150 12 35 0.0 0.0 0.00 0.48 0.00 95 1017.3
20260502051207 12 35 0.0 0.0 0.00 0.48 0.00 95 1017.3
20260502050842 12 35 0.0 0.0 0.00 0.48 0.00 95 1017.3
20260502050146 13 35 0.0 0.0 0.00 0.48 0.00 95 1017.3
20260502045220 13 35 0.0 0.0 0.00 0.48 0.48 95 1017.3
20260502043158 13 35 0.0 0.0 0.00 0.48 0.48 95 1017.3
20260502042210 13 35 0.0 0.0 0.00 0.48 0.48 95 1017.2
20260502041148 13 35 0.0 0.0 0.00 0.48 0.48 95 1017.1
20260502040224 13 35 0.0 0.0 0.00 0.48 0.48 94 1017.2
20260502034152 13 35 0.0 0.0 0.00 0.48 0.48 94 1017.1
20260502033138 13 35 0.0 0.0 0.00 0.48 0.48 94 1017.2
20260502032211 13 35 0.0 0.0 0.00 0.48 0.48 94 1017.3
20260502031237 13 35 0.0 1.6 0.00 0.48 0.48 94 1017.2
20260502025148 13 35 0.0 0.0 0.00 0.48 0.48 92 1016.5
20260502024215 13 35 0.0 0.0 0.00 0.48 0.48 92 1016.4
20260502023145 13 35 0.0 0.0 0.00 0.48 0.48 92 1016.4
20260502022159 13 35 0.0 1.6 0.00 0.48 0.48 92 1016.3
20260502021229 13 35 0.0 4.8 0.00 0.48 0.48 93 1016.3
20260502020216 13 32 0.0 3.2 0.00 0.48 0.48 93 1016.2
20260502014148 13 62 0.0 3.2 0.00 0.48 0.48 92 1016.7
20260502013215 13 62 0.0 1.6 0.00 0.48 0.48 92 1016.6
20260502010212 13 62 0.0 1.6 0.00 0.48 0.48 90 1016.1
20260502005124 13 62 0.0 3.2 0.00 0.48 0.48 89 1015.5
20260502004204 13 59 1.6 3.2 0.00 0.48 0.48 90 1014.9
20260502003234 13 59 0.0 4.8 0.00 0.48 0.48 89 1015.4
20260502002143 13 59 0.0 3.2 0.00 0.48 0.48 89 1015.1
20260502001213 14 58 0.0 4.8 0.00 0.48 0.48 88 1015.2
20260502000207 14 76 1.6 4.8 0.00 0.48 0.48 87 1015.1
20260501235126 14 65 0.0 8.0 0.00 0.48 0.48 87 1015.2
20260501233159 14 71 0.0 8.0 0.00 0.48 0.48 85 1014.9
20260501232141 14 64 3.2 8.0 0.00 0.48 0.48 84 1014.6
20260501231211 14 55 1.6 12.9 0.00 0.48 0.48 83 1015.0
20260501230927 14 89 3.2 12.9 0.00 0.48 0.48 82 1014.7
20260501230223 14 94 4.8 12.9 0.00 0.48 0.48 83 1014.1
20260501225157 15 43 3.2 12.9 0.00 0.48 0.48 83 1014.3
20260501224205 15 56 1.6 17.7 0.00 0.48 0.48 84 1014.4
20260501223128 15 49 3.2 9.7 0.00 0.48 0.48 82 1014.4
20260501222154 15 90 4.8 12.9 0.00 0.48 0.48 82 1014.0
20260501221142 15 76 1.6 8.0 0.00 0.48 0.48 84 1014.3
20260501220207 15 113 3.2 9.7 0.00 0.48 0.48 82 1013.9
20260501215131 15 66 3.2 12.9 0.00 0.51 0.48 84 1013.3
20260501214213 15 5 3.2 16.1 0.00 0.51 0.48 84 1012.9
20260501213131 15 36 4.8 16.1 0.00 0.51 0.48 85 1012.7
20260501212151 15 49 3.2 9.7 0.00 0.51 0.48 85 1013.0
20260501211137 15 117 1.6 9.7 0.00 0.51 0.48 85 1013.2
20260501210154 15 5 3.2 9.7 0.00 0.51 0.48 84 1013.4
20260501205206 15 51 3.2 9.7 0.03 0.53 0.48 85 1014.2
20260501204129 14 45 4.8 14.5 0.03 0.53 0.48 83 1014.4
20260501203210 14 51 4.8 14.5 0.03 0.53 0.48 84 1014.7
20260501202131 15 78 3.2 9.7 0.03 0.53 0.48 83 1015.3
20260501201204 15 5 3.2 16.1 0.03 0.53 0.48 85 1015.1
20260501200835 15 86 1.6 20.9 0.03 0.53 0.48 84 1014.7
20260501200221 15 355 3.2 20.9 0.03 0.53 0.48 83 1014.1
20260501195141 15 65 4.8 16.1 0.00 0.51 0.46 85 1013.0
20260501194222 14 91 8.0 17.7 0.00 0.51 0.46 84 1012.8
20260501193130 14 55 4.8 22.5 0.00 0.51 0.46 88 1012.7
20260501192200 14 34 3.2 25.7 0.00 0.51 0.46 92 1012.6
20260501191128 13 56 4.8 17.7 0.00 0.51 0.46 95 1012.8
20260501190216 13 76 3.2 16.1 0.00 0.51 0.46 96 1013.4
20260501185146 12 64 4.8 17.7 0.03 0.71 0.46 97 1013.4
20260501184212 12 44 4.8 20.9 0.03 0.71 0.46 97 1013.6
20260501183148 12 55 4.8 14.5 0.03 0.71 0.46 97 1013.9
20260501182222 12 64 3.2 16.1 0.03 0.71 0.46 97 1014.5
20260501181142 12 302 3.2 11.3 0.03 0.71 0.46 97 1014.8
20260501180207 12 78 1.6 11.3 0.03 0.71 0.46 97 1015.1
20260501175212 12 45 4.8 11.3 0.00 0.94 0.43 97 1015.3
20260501174140 12 59 1.6 12.9 0.00 0.94 0.43 97 1015.5
20260501173221 12 14 4.8 12.9 0.00 0.94 0.43 97 1015.4
20260501172148 12 53 3.2 14.5 0.03 0.94 0.43 97 1015.4
20260501171226 12 134 3.2 14.5 0.03 0.94 0.43 97 1016.0
20260501170908 12 78 4.8 14.5 0.03 0.94 0.43 97 1016.1
20260501170212 12 88 3.2 17.7 0.03 0.94 0.43 97 1016.2
20260501164144 12 82 1.6 8.0 0.05 0.94 0.43 97 1016.2
20260501163223 12 63 3.2 14.5 0.08 0.94 0.43 97 1016.4
20260501162142 12 141 3.2 14.5 0.08 0.91 0.41 97 1016.4
20260501161215 12 111 3.2 17.7 0.10 0.91 0.41 97 1016.5
20260501160205 12 24 3.2 8.0 0.10 0.91 0.41 97 1016.6
20260501155151 12 57 1.6 12.9 0.08 0.89 0.38 97 1016.8
20260501154200 12 62 3.2 6.4 0.05 0.86 0.36 97 1016.9